DW8722 Weather Reports


time (UTC)temp
F
wind
direction
speed
knots
gust
knots
rain 1hr
in
rain 24hr
in
rain mn
in
humidity
%
barometer
mb
20260506110424 53 5 6.1 11.3 0.00 0.00 0.00 84 1011.6
20260506105446 53 342 7.0 13.0 0.00 0.00 0.00 84 1011.4
20260506104425 53 315 6.1 13.0 0.00 0.00 0.00 83 1011.2
20260506103419 53 319 5.2 11.3 0.00 0.00 0.00 83 1011.0
20260506102422 53 16 5.2 12.2 0.00 0.00 0.00 83 1010.8
20260506101436 53 321 7.0 12.2 0.00 0.00 0.00 82 1010.7
20260506100456 53 319 3.5 8.7 0.00 0.00 0.00 82 1010.7
20260506094355 54 346 2.6 10.4 0.00 0.00 0.00 82 1010.4
20260506093355 54 355 3.5 10.4 0.00 0.00 0.00 81 1010.4
20260506092402 54 13 4.3 13.9 0.00 0.00 0.00 81 1010.3
20260506091330 54 342 3.5 13.9 0.00 0.00 0.00 81 1010.1
20260506090303 54 327 4.3 11.3 0.00 0.00 0.00 81 1009.8
20260506085230 54 355 5.2 11.3 0.00 0.00 0.00 80 1009.8
20260506084236 54 324 2.6 12.2 0.00 0.00 0.00 80 1009.7
20260506083215 54 9 7.0 12.2 0.00 0.00 0.00 79 1009.9
20260506082221 55 355 2.6 8.7 0.00 0.00 0.00 79 1009.8
20260506081211 55 342 2.6 8.7 0.00 0.00 0.00 79 1009.4
20260506080139 55 342 2.6 7.0 0.00 0.00 0.00 79 1009.2
20260506073101 55 23 2.6 8.7 0.00 0.00 0.00 79 1009.3
20260506070929 55 336 4.3 13.0 0.00 0.00 0.00 79 1009.4
20260506061708 56 334 7.0 13.9 0.00 0.00 0.00 80 1009.4
20260506060721 56 331 7.0 13.0 0.00 0.00 0.00 80 1009.3
20260506050539 57 11 7.0 12.2 0.00 0.00 0.00 81 1009.1
20260506044331 58 342 6.1 12.2 0.00 0.00 0.00 81 1009.1
20260506043323 59 350 6.1 12.2 0.00 0.00 0.00 81 1009.0
20260506042314 59 5 5.2 14.8 0.00 0.00 0.00 81 1008.9
20260506041334 59 9 7.8 14.8 0.00 0.00 0.00 81 1008.7
20260506040339 59 0 7.0 13.0 0.00 0.00 0.00 82 1008.6
20260506035324 60 326 7.8 13.0 0.00 0.00 0.00 82 1008.8
20260506034314 60 343 7.0 13.0 0.00 0.00 0.00 82 1008.5
20260506033323 60 325 7.8 14.8 0.00 0.00 0.00 82 1008.3
20260506032329 61 348 6.1 14.8 0.00 0.00 0.00 82 1008.2
20260506031304 62 340 5.2 12.2 0.00 0.00 0.00 81 1008.0
20260506030249 63 329 7.0 13.0 0.00 0.00 0.00 80 1007.7
20260506025312 64 339 5.2 13.0 0.00 0.00 0.00 80 1007.4
20260506021941 67 0 6.1 12.2 0.00 0.00 0.00 80 1006.4
20260506014709 69 333 3.5 12.2 0.00 0.00 0.00 78 1005.8
20260506013651 69 344 5.2 12.2 0.00 0.00 0.00 78 1005.9
20260506012645 70 324 5.2 11.3 0.00 0.00 0.00 78 1005.8
20260506011621 70 5 4.3 9.6 0.00 0.00 0.00 78 1005.4
20260506010610 71 348 4.3 12.2 0.00 0.00 0.00 77 1005.2
20260506005627 72 11 6.1 12.2 0.00 0.00 0.00 75 1004.7
20260506004610 73 355 2.6 9.6 0.00 0.00 0.00 75 1005.0
20260506003602 74 340 2.6 9.6 0.00 0.00 0.00 74 1005.0
20260506002608 75 313 2.6 11.3 0.00 0.00 0.00 73 1005.0
20260506001558 75 302 5.2 12.2 0.00 0.00 0.00 72 1004.7
20260506000543 76 313 4.3 13.9 0.00 0.00 0.00 70 1004.3
20260505235542 77 318 6.1 13.9 0.00 0.00 0.00 69 1004.2
20260505234513 78 311 7.0 13.0 0.00 0.00 0.00 66 1004.0
20260505231244 82 309 1.7 7.0 0.00 0.00 0.00 61 1003.6
20260505230221 83 271 2.6 7.8 0.00 0.00 0.00 59 1003.3
20260505225242 86 245 2.6 8.7 0.00 0.00 0.00 65 1003.3
20260505224250 86 204 3.5 8.7 0.00 0.00 0.00 63 1003.0
20260505223231 87 196 3.5 8.7 0.00 0.00 0.00 63 1002.7
20260505222224 87 174 2.6 7.0 0.00 0.00 0.00 64 1002.6
20260505221221 87 210 2.6 7.0 0.00 0.00 0.00 62 1002.6
20260505220209 87 223 4.3 7.8 0.00 0.00 0.00 63 1002.9
20260505215231 88 186 4.3 8.7 0.00 0.00 0.00 63 1002.9
20260505214220 88 204 4.3 12.2 0.00 0.00 0.00 62 1002.9
20260505213227 88 196 5.2 13.0 0.00 0.00 0.00 62 1003.0
20260505212251 87 196 6.1 13.0 0.00 0.00 0.00 64 1003.0
20260505211303 87 217 7.0 13.0 0.00 0.00 0.00 66 1003.2
20260505210310 86 193 7.0 13.0 0.00 0.00 0.00 66 1003.2
20260505205305 85 209 6.1 12.2 0.00 0.00 0.00 68 1003.3
20260505204243 84 180 7.8 12.2 0.00 0.00 0.00 70 1003.3
20260505203252 84 171 6.1 12.2 0.00 0.00 0.00 69 1003.6
20260505202243 84 183 7.0 13.9 0.00 0.00 0.00 70 1003.7
20260505201235 84 187 7.0 15.6 0.00 0.00 0.00 69 1003.6
20260505195103 85 202 8.7 15.6 0.00 0.00 0.00 68 1003.8
20260505194042 84 194 9.6 15.6 0.00 0.00 0.00 70 1003.7
20260505193027 83 180 8.7 16.5 0.00 0.00 0.00 71 1003.8
20260505192026 82 196 10.4 16.5 0.00 0.00 0.00 70 1003.6
20260505190954 83 146 7.8 17.4 0.00 0.00 0.00 70 1003.8
20260505190014 82 207 7.8 17.4 0.00 0.00 0.00 72 1003.8
20260505185034 81 196 8.7 16.5 0.00 0.00 0.00 72 1003.8
20260505182854 81 201 8.7 17.4 0.00 0.00 0.00 71 1004.0
20260505181831 81 207 9.6 19.1 0.00 0.00 0.00 72 1004.1
20260505175700 81 202 11.3 22.6 0.00 0.00 0.00 73 1003.9
20260505174647 81 176 9.6 20.9 0.00 0.00 0.00 75 1003.8
20260505173648 79 179 8.7 16.5 0.00 0.00 0.00 76 1003.9
20260505172633 78 181 8.7 21.7 0.00 0.00 0.00 77 1004.1
20260505171648 78 199 10.4 21.7 0.00 0.00 0.00 78 1004.2
20260505164359 76 159 8.7 17.4 0.00 0.00 0.00 80 1003.7
20260505162240 77 221 11.3 25.2 0.00 0.00 0.00 78 1003.9
20260505161215 77 205 10.4 25.2 0.00 0.00 0.00 78 1003.9
20260505160226 77 195 9.6 19.1 0.00 0.00 0.00 79 1004.0
20260505153313 75 180 11.3 20.9 0.00 0.00 0.00 81 1003.7
20260505152243 75 203 12.2 20.9 0.00 0.00 0.00 82 1003.9
20260505151252 74 221 11.3 20.0 0.00 0.00 0.00 82 1004.0
20260505150231 74 200 12.2 24.3 0.00 0.00 0.00 82 1004.0
20260505140118 72 206 12.2 21.7 0.00 0.00 0.00 85 1003.6
20260505130120 71 205 9.6 16.5 0.00 0.00 0.00 86 1003.9
20260505123013 70 169 9.6 19.1 0.00 0.00 0.00 87 1003.6
20260505121947 70 0 7.8 15.6 0.00 0.00 0.00 87 1003.6
20260505120919 70 213 8.7 14.8 0.00 0.00 0.00 86 1003.5
20260505115859 70 187 8.7 20.0 0.00 0.00 0.00 86 1003.3
20260505114857 70 186 8.7 20.0 0.00 0.00 0.00 86 1003.2
20260505113844 70 173 8.7 18.2 0.00 0.00 0.00 86 1003.3
20260505112843 70 188 9.6 15.6 0.00 0.00 0.00 86 1003.3